QPF
0.03 0.04 0.04 0.03 0.03 0.02 0.02 0.03 0.03 0.02 0.03 0.02 0.02 0.02 0.02 0.02 0.03 0.04 0.04 0.04 0.04 0.05 0.05 0.05 0.06 0.06 0.06 0.07 0.06 0.05 0.05 0.04 0.04 0.05 0.06 0.04 0.04 0.04 0.03 0.03 0.03 0.03 0.02
0.04 0.03 0.03 0.04 0.04 0.03 0.02 0.03 0.03 0.03 0.03 0.03 0.03 0.02 0.02 0.02 0.03 0.03 0.03 0.02 0.03 0.03 0.03 0.03 0.05 0.06 0.06 0.06 0.06 0.05 0.05 0.05 0.05 0.05 0.05 0.05 0.05 0.06 0.05 0.05 0.03 0.02 0.02
0.05 0.03 0.03 0.04 0.05 0.04 0.03 0.02 0.02 0.03 0.03 0.03 0.03 0.03 0.02 0.02 0.03 0.03 0.03 0.04 0.04 0.03 0.03 0.03 0.04 0.05 0.04 0.06 0.06 0.06 0.05 0.05 0.06 0.05 0.06 0.05 0.05 0.05 0.05 0.05 0.03 0.03 0.01
0.04 0.04 0.04 0.04 0.04 0.04 0.03 0.04 0.03 0.03 0.02 0.02 0.03 0.03 0.03 0.03 0.03 0.03 0.03 0.03 0.04 0.04 0.04 0.04 0.04 0.04 0.04 0.05 0.05 0.06 0.06 0.06 0.05 0.05 0.05 0.05 0.05 0.04 0.05 0.05 0.04 0.03 0.02
0.04 0.04 0.04 0.04 0.05 0.05 0.04 0.04 0.04 0.04 0.03 0.03 0.03 0.03 0.04 0.04 0.03 0.04 0.03 0.02 0.02 0.03 0.03 0.03 0.02 0.03 0.04 0.04 0.04 0.05 0.06 0.06 0.05 0.05 0.05 0.05 0.05 0.06 0.05 0.05 0.05 0.04 0.03
0.04 0.04 0.04 0.05 0.06 0.05 0.04 0.04 0.04 0.04 0.04 0.03 0.03 0.04 0.04 0.04 0.04 0.03 0.03 0.03 0.02 0.02 0.03 0.03 0.02 0.02 0.02 0.03 0.03 0.04 0.05 0.05 0.05 0.05 0.05 0.04 0.04 0.04 0.06 0.05 0.05 0.04 0.03
0.05 0.05 0.04 0.05 0.06 0.06 0.04 0.04 0.04 0.04 0.04 0.03 0.03 0.04 0.03 0.04 0.03 0.03 0.02 0.02 0.02 0.02 0.02 0.02 0.01 0.01 0.03 0.04 0.04 0.04 0.05 0.05 0.06 0.06 0.06 0.05 0.04 0.04 0.05 0.05 0.06 0.05 0.04
0.07 0.06 0.05 0.04 0.05 0.06 0.06 0.06 0.05 0.05 0.05 0.04 0.03 0.03 0.03 0.03 0.02 0.01 0.01 0.01 0.02 0.01 0.01 0.02 0.02 0.02 0.02 0.03 0.03 0.04 0.05 0.04 0.03 0.03 0.04 0.05 0.05 0.05 0.05 0.05 0.06 0.06 0.05
0.09 0.08 0.05 0.04 0.05 0.05 0.05 0.06 0.06 0.05 0.05 0.04 0.03 0.02 0.03 0.03 0.02 0.01 0.01 0.01 0.02 0.02 0.03 0.03 0.03 0.03 0.03 0.04 0.03 0.04 0.04 0.02 0.02 0.02 0.02 0.03 0.03 0.04 0.04 0.05 0.05 0.05 0.04
0.08 0.06 0.05 0.04 0.05 0.05 0.05 0.05 0.04 0.05 0.05 0.04 0.03 0.03 0.02 0.02 0.01 0.01 0.01 0.02 0.03 0.04 0.05 0.05 0.05 0.05 0.05 0.04 0.04 0.04 0.04 0.02 0.02 0.02 0.03 0.02 0.02 0.02 0.02 0.03 0.05 0.05 0.05
0.04 0.04 0.04 0.03 0.03 0.05 0.06 0.05 0.04 0.04 0.04 0.04 0.03 0.02 0.01 0.01 0.01 0.02 0.02 0.02 0.03 0.04 0.04 0.04 0.05 0.05 0.05 0.05 0.05 0.06 0.04 0.04 0.03 0.03 0.03 0.03 0.03 0.02 0.03 0.02 0.03 0.05 0.05
0.04 0.04 0.04 0.03 0.02 0.03 0.04 0.05 0.05 0.05 0.04 0.03 0.03 0.02 0.01 0.01 0.01 0.02 0.03 0.03 0.03 0.03 0.03 0.03 0.04 0.05 0.04 0.04 0.05 0.05 0.05 0.04 0.05 0.04 0.03 0.03 0.03 0.03 0.03 0.03 0.04 0.05 0.03
0.04 0.03 0.04 0.03 0.03 0.02 0.03 0.04 0.06 0.05 0.05 0.03 0.02 0.01 0.01 0.01 0.01 0.02 0.02 0.02 0.02 0.02 0.02 0.03 0.05 0.07 0.06 0.05 0.05 0.05 0.05 0.05 0.05 0.04 0.04 0.03 0.03 0.04 0.04 0.04 0.05 0.06 0.04
0.03 0.03 0.03 0.03 0.03 0.02 0.02 0.03 0.04 0.03 0.03 0.02 0.02 0.01 0.01 0.01 0.01 0.01 0.01 0.01 0.01 0.01 0.01 0.02 0.05 0.08 0.08 0.08 0.07 0.06 0.05 0.05 0.05 0.05 0.05 0.05 0.04 0.05 0.05 0.06 0.07 0.08 0.04
0.04 0.03 0.02 0.02 0.02 0.03 0.02 0.02 0.02 0.01 0.01 0.01 0.01 0.01 0.02 0.02 0.01 0.01 0.01 0.00 0.00 0.00 0.01 0.02 0.03 0.05 0.05 0.05 0.05 0.05 0.05 0.05 0.06 0.06 0.06 0.07 0.06 0.05 0.05 0.06 0.08 0.06 0.03
0.02 0.02 0.02 0.02 0.02 0.03 0.02 0.01 0.01 0.01 0.01 0.01 0.01 0.01 0.01 0.02 0.02 0.01 0.00 0.00 0.00 0.00 0.01 0.02 0.02 0.02 0.03 0.04 0.04 0.04 0.04 0.05 0.05 0.04 0.04 0.04 0.04 0.04 0.05 0.06 0.06 0.04 0.03
0.01 0.01 0.01 0.01 0.02 0.02 0.03 0.03 0.03 0.02 0.02 0.03 0.02 0.02 0.03 0.03 0.02 0.01 0.01 0.00 0.00 0.01 0.01 0.01 0.01 0.02 0.02 0.03 0.03 0.03 0.03 0.04 0.03 0.03 0.02 0.03 0.03 0.03 0.04 0.05 0.05 0.04 0.02
0.00 0.01 0.01 0.01 0.01 0.02 0.03 0.03 0.04 0.04 0.03 0.02 0.02 0.02 0.04 0.04 0.03 0.02 0.02 0.01 0.01 0.01 0.01 0.01 0.01 0.01 0.01 0.02 0.03 0.03 0.03 0.03 0.03 0.02 0.02 0.02 0.03 0.04 0.03 0.03 0.04 0.04 0.03
0.00 0.01 0.01 0.02 0.02 0.02 0.02 0.03 0.03 0.03 0.03 0.02 0.02 0.02 0.03 0.03 0.04 0.03 0.03 0.03 0.02 0.01 0.01 0.01 0.01 0.01 0.01 0.02 0.02 0.02 0.03 0.03 0.03 0.03 0.02 0.03 0.03 0.03 0.03 0.03 0.03 0.03 0.03
0.01 0.00 0.01 0.02 0.01 0.01 0.02 0.02 0.03 0.03 0.03 0.03 0.02 0.03 0.03 0.04 0.04 0.04 0.03 0.03 0.03 0.02 0.02 0.01 0.01 0.02 0.03 0.04 0.03 0.03 0.02 0.02 0.02 0.03 0.03 0.03 0.03 0.03 0.02 0.02 0.03 0.03 0.03
0.01 0.01 0.02 0.01 0.01 0.01 0.02 0.02 0.02 0.02 0.02 0.02 0.02 0.02 0.03 0.03 0.03 0.04 0.04 0.04 0.04 0.04 0.03 0.02 0.02 0.02 0.02 0.04 0.05 0.04 0.03 0.03 0.02 0.02 0.02 0.03 0.03 0.03 0.02 0.01 0.02 0.02 0.03
0.01 0.02 0.02 0.02 0.02 0.02 0.03 0.03 0.03 0.02 0.02 0.02 0.02 0.02 0.02 0.03 0.03 0.03 0.03 0.04 0.04 0.04 0.04 0.03 0.02 0.01 0.01 0.02 0.03 0.04 0.04 0.04 0.03 0.02 0.02 0.02 0.02 0.02 0.01 0.01 0.02 0.02 0.03
0.02 0.02 0.02 0.02 0.03 0.03 0.03 0.04 0.04 0.03 0.03 0.03 0.03 0.02 0.01 0.02 0.02 0.02 0.02 0.02 0.03 0.02 0.02 0.03 0.03 0.02 0.01 0.01 0.02 0.03 0.04 0.04 0.04 0.03 0.02 0.02 0.02 0.02 0.01 0.01 0.02 0.02 0.02
0.02 0.03 0.03 0.03 0.03 0.02 0.03 0.03 0.02 0.02 0.02 0.02 0.03 0.03 0.02 0.01 0.01 0.01 0.01 0.01 0.02 0.02 0.02 0.02 0.02 0.03 0.03 0.02 0.01 0.01 0.02 0.03 0.03 0.04 0.03 0.02 0.01 0.01 0.01 0.01 0.02 0.02 0.02
0.01 0.01 0.02 0.02 0.01 0.02 0.02 0.02 0.02 0.01 0.01 0.01 0.01 0.02 0.02 0.02 0.02 0.01 0.01 0.01 0.01 0.01 0.02 0.02 0.02 0.02 0.02 0.02 0.01 0.02 0.02 0.03 0.03 0.04 0.04 0.04 0.03 0.02 0.01 0.01 0.02 0.02 0.02
0.01 0.01 0.01 0.01 0.01 0.01 0.01 0.01 0.01 0.01 0.01 0.01 0.01 0.00 0.01 0.02 0.02 0.02 0.02 0.02 0.02 0.02 0.02 0.01 0.01 0.01 0.01 0.01 0.01 0.02 0.02 0.03 0.04 0.05 0.05 0.06 0.05 0.04 0.02 0.01 0.01 0.02 0.02
MSLP
1008.46 1009.09 1009.61 1010.00 1010.26 1010.40 1010.46 1010.48 1010.53 1010.63 1010.81 1011.07 1011.37 1011.69 1011.99 1012.22 1012.38 1012.47 1012.51 1012.54 1012.61 1012.75 1012.97 1013.27 1013.63 1014.01 1014.36 1014.63 1014.80 1014.87 1014.85 1014.77 1014.68 1014.61 1014.61 1014.68 1014.81 1014.99 1015.16 1015.30 1015.38 1015.37 1015.29
1008.08 1008.70 1009.22 1009.62 1009.89 1010.02 1010.07 1010.07 1010.09 1010.15 1010.28 1010.49 1010.75 1011.04 1011.30 1011.52 1011.66 1011.73 1011.76 1011.77 1011.81 1011.91 1012.10 1012.38 1012.73 1013.10 1013.48 1013.80 1014.04 1014.18 1014.24 1014.24 1014.22 1014.20 1014.24 1014.33 1014.49 1014.70 1014.92 1015.12 1015.29 1015.40 1015.46
1007.90 1008.50 1009.02 1009.43 1009.70 1009.84 1009.88 1009.87 1009.85 1009.87 1009.95 1010.10 1010.31 1010.54 1010.75 1010.92 1011.03 1011.07 1011.07 1011.04 1011.04 1011.10 1011.25 1011.49 1011.81 1012.18 1012.57 1012.92 1013.22 1013.44 1013.58 1013.65 1013.70 1013.74 1013.81 1013.93 1014.11 1014.33 1014.58 1014.84 1015.08 1015.29 1015.47
1007.91 1008.48 1009.00 1009.40 1009.68 1009.82 1009.86 1009.84 1009.79 1009.76 1009.79 1009.87 1010.01 1010.16 1010.31 1010.42 1010.48 1010.47 1010.42 1010.35 1010.30 1010.32 1010.42 1010.62 1010.90 1011.26 1011.65 1012.04 1012.38 1012.66 1012.88 1013.03 1013.14 1013.23 1013.34 1013.48 1013.67 1013.90 1014.16 1014.44 1014.73 1015.00 1015.27
1008.10 1008.63 1009.12 1009.51 1009.78 1009.92 1009.95 1009.90 1009.83 1009.76 1009.72 1009.73 1009.79 1009.86 1009.94 1009.98 1009.97 1009.90 1009.80 1009.68 1009.59 1009.55 1009.60 1009.76 1010.01 1010.35 1010.74 1011.15 1011.53 1011.87 1012.15 1012.37 1012.55 1012.69 1012.84 1012.99 1013.18 1013.41 1013.66 1013.94 1014.24 1014.55 1014.86
1008.43 1008.90 1009.34 1009.70 1009.94 1010.05 1010.06 1009.99 1009.88 1009.76 1009.66 1009.60 1009.58 1009.58 1009.57 1009.54 1009.47 1009.35 1009.19 1009.03 1008.89 1008.81 1008.82 1008.93 1009.15 1009.47 1009.85 1010.27 1010.68 1011.07 1011.40 1011.69 1011.92 1012.12 1012.29 1012.47 1012.66 1012.87 1013.11 1013.37 1013.66 1013.95 1014.27
1008.84 1009.24 1009.61 1009.90 1010.09 1010.17 1010.14 1010.03 1009.88 1009.71 1009.55 1009.43 1009.34 1009.27 1009.20 1009.11 1008.99 1008.82 1008.63 1008.43 1008.25 1008.13 1008.10 1008.17 1008.35 1008.63 1008.99 1009.40 1009.83 1010.24 1010.62 1010.96 1011.24 1011.49 1011.70 1011.90 1012.10 1012.30 1012.52 1012.76 1013.01 1013.28 1013.57
1009.28 1009.59 1009.87 1010.09 1010.21 1010.23 1010.15 1009.99 1009.79 1009.58 1009.39 1009.22 1009.08 1008.96 1008.85 1008.73 1008.57 1008.38 1008.16 1007.94 1007.73 1007.57 1007.49 1007.51 1007.64 1007.87 1008.19 1008.57 1008.98 1009.40 1009.80 1010.16 1010.49 1010.77 1011.03 1011.26 1011.47 1011.69 1011.91 1012.13 1012.36 1012.59 1012.85
1009.69 1009.91 1010.10 1010.23 1010.27 1010.22 1010.08 1009.88 1009.65 1009.41 1009.19 1009.00 1008.84 1008.71 1008.58 1008.45 1008.28 1008.09 1007.86 1007.62 1007.39 1007.19 1007.06 1007.02 1007.08 1007.24 1007.48 1007.80 1008.16 1008.55 1008.93 1009.30 1009.65 1009.96 1010.25 1010.52 1010.77 1011.01 1011.25 1011.48 1011.70 1011.93 1012.16
1010.05 1010.17 1010.27 1010.31 1010.27 1010.16 1009.98 1009.75 1009.49 1009.24 1009.02 1008.83 1008.69 1008.57 1008.46 1008.34 1008.19 1008.00 1007.78 1007.53 1007.27 1007.04 1006.85 1006.73 1006.69 1006.75 1006.89 1007.12 1007.39 1007.71 1008.04 1008.39 1008.72 1009.05 1009.37 1009.67 1009.97 1010.26 1010.53 1010.80 1011.05 1011.29 1011.52
1010.31 1010.36 1010.38 1010.34 1010.24 1010.08 1009.86 1009.61 1009.36 1009.12 1008.93 1008.77 1008.66 1008.58 1008.51 1008.43 1008.31 1008.14 1007.93 1007.67 1007.39 1007.10 1006.85 1006.64 1006.49 1006.43 1006.45 1006.54 1006.70 1006.91 1007.16 1007.44 1007.74 1008.05 1008.38 1008.71 1009.06 1009.40 1009.73 1010.06 1010.36 1010.64 1010.90
1010.46 1010.45 1010.41 1010.32 1010.17 1009.98 1009.75 1009.50 1009.27 1009.07 1008.92 1008.82 1008.76 1008.74 1008.72 1008.68 1008.60 1008.46 1008.25 1007.99 1007.68 1007.34 1007.01 1006.71 1006.45 1006.26 1006.14 1006.09 1006.11 1006.20 1006.33 1006.52 1006.75 1007.02 1007.34 1007.68 1008.05 1008.44 1008.84 1009.23 1009.60 1009.95 1010.26
1010.50 1010.45 1010.37 1010.25 1010.07 1009.86 1009.63 1009.41 1009.21 1009.06 1008.96 1008.92 1008.93 1008.97 1009.01 1009.01 1008.96 1008.84 1008.64 1008.36 1008.03 1007.64 1007.25 1006.86 1006.51 1006.20 1005.95 1005.77 1005.65 1005.60 1005.62 1005.69 1005.83 1006.03 1006.30 1006.62 1007.00 1007.41 1007.86 1008.30 1008.75 1009.16 1009.54
1010.43 1010.36 1010.26 1010.10 1009.91 1009.70 1009.48 1009.28 1009.12 1009.02 1008.98 1009.01 1009.07 1009.16 1009.24 1009.28 1009.25 1009.14 1008.94 1008.66 1008.30 1007.88 1007.44 1007.00 1006.58 1006.19 1005.85 1005.56 1005.34 1005.17 1005.06 1005.02 1005.05 1005.16 1005.34 1005.61 1005.95 1006.36 1006.81 1007.30 1007.79 1008.26 1008.70
1010.28 1010.20 1010.06 1009.89 1009.68 1009.46 1009.25 1009.08 1008.95 1008.89 1008.90 1008.97 1009.07 1009.19 1009.29 1009.35 1009.33 1009.22 1009.01 1008.72 1008.35 1007.94 1007.49 1007.03 1006.59 1006.18 1005.80 1005.46 1005.16 1004.90 1004.70 1004.55 1004.46 1004.45 1004.53 1004.70 1004.97 1005.32 1005.75 1006.24 1006.75 1007.26 1007.75
1010.09 1009.97 1009.81 1009.60 1009.38 1009.14 1008.93 1008.76 1008.66 1008.62 1008.65 1008.74 1008.86 1008.98 1009.08 1009.13 1009.09 1008.97 1008.76 1008.47 1008.12 1007.72 1007.31 1006.89 1006.49 1006.11 1005.75 1005.42 1005.10 1004.80 1004.53 1004.29 1004.09 1003.95 1003.89 1003.94 1004.09 1004.35 1004.71 1005.15 1005.66 1006.18 1006.71
1009.88 1009.72 1009.51 1009.27 1009.00 1008.74 1008.51 1008.34 1008.23 1008.20 1008.23 1008.31 1008.42 1008.53 1008.60 1008.61 1008.55 1008.41 1008.20 1007.92 1007.59 1007.25 1006.90 1006.57 1006.26 1005.97 1005.69 1005.41 1005.12 1004.82 1004.50 1004.18 1003.87 1003.60 1003.39 1003.28 1003.29 1003.42 1003.68 1004.05 1004.52 1005.05 1005.60
1009.69 1009.47 1009.20 1008.90 1008.59 1008.29 1008.03 1007.84 1007.71 1007.67 1007.68 1007.74 1007.82 1007.89 1007.92 1007.89 1007.79 1007.62 1007.40 1007.13 1006.85 1006.58 1006.33 1006.11 1005.92 1005.75 1005.58 1005.39 1005.16 1004.88 1004.54 1004.15 1003.73 1003.32 1002.95 1002.67 1002.50 1002.48 1002.62 1002.91 1003.33 1003.85 1004.43
1009.53 1009.24 1008.90 1008.54 1008.17 1007.83 1007.54 1007.31 1007.17 1007.10 1007.09 1007.12 1007.15 1007.17 1007.15 1007.07 1006.93 1006.73 1006.50 1006.25 1006.01 1005.82 1005.67 1005.57 1005.51 1005.47 1005.42 1005.33 1005.16 1004.90 1004.53 1004.07 1003.54 1002.98 1002.44 1001.98 1001.63 1001.46 1001.46 1001.66 1002.03 1002.56 1003.18
1009.39 1009.03 1008.62 1008.19 1007.77 1007.39 1007.07 1006.82 1006.66 1006.57 1006.53 1006.53 1006.52 1006.49 1006.42 1006.29 1006.10 1005.88 1005.63 1005.40 1005.21 1005.08 1005.02 1005.02 1005.08 1005.15 1005.20 1005.18 1005.05 1004.79 1004.38 1003.84 1003.18 1002.47 1001.75 1001.10 1000.59 1000.25 1000.13 1000.25 1000.58 1001.12 1001.81
1009.25 1008.82 1008.35 1007.86 1007.40 1006.99 1006.65 1006.39 1006.22 1006.11 1006.06 1006.03 1006.00 1005.93 1005.81 1005.64 1005.42 1005.17 1004.91 1004.69 1004.53 1004.45 1004.45 1004.53 1004.66 1004.81 1004.91 1004.93 1004.80 1004.51 1004.03 1003.38 1002.59 1001.72 1000.83 1000.00 999.31 998.82 998.59 998.64 998.95 999.51 1000.28
1009.09 1008.59 1008.07 1007.54 1007.05 1006.62 1006.27 1006.02 1005.84 1005.74 1005.68 1005.64 1005.59 1005.49 1005.35 1005.14 1004.90 1004.63 1004.36 1004.15 1004.00 1003.95 1003.98 1004.10 1004.27 1004.44 1004.56 1004.56 1004.40 1004.04 1003.47 1002.70 1001.77 1000.73 999.67 998.67 997.83 997.22 996.89 996.87 997.17 997.76 998.60
1008.86 1008.31 1007.74 1007.19 1006.68 1006.25 1005.91 1005.66 1005.50 1005.40 1005.35 1005.31 1005.24 1005.13 1004.97 1004.75 1004.49 1004.21 1003.95 1003.74 1003.60 1003.55 1003.60 1003.73 1003.89 1004.05 1004.14 1004.09 1003.86 1003.42 1002.74 1001.85 1000.78 999.60 998.39 997.26 996.28 995.56 995.14 995.07 995.35 995.97 996.86
1008.56 1007.96 1007.36 1006.78 1006.27 1005.84 1005.50 1005.27 1005.12 1005.03 1004.98 1004.94 1004.87 1004.76 1004.59 1004.37 1004.11 1003.83 1003.58 1003.37 1003.24 1003.20 1003.24 1003.36 1003.50 1003.63 1003.67 1003.56 1003.27 1002.74 1001.97 1000.98 999.80 998.52 997.20 995.96 994.89 994.08 993.59 993.47 993.72 994.33 995.25
1008.17 1007.53 1006.90 1006.31 1005.79 1005.36 1005.03 1004.80 1004.65 1004.56 1004.51 1004.46 1004.39 1004.27 1004.10 1003.89 1003.64 1003.38 1003.14 1002.95 1002.83 1002.80 1002.85 1002.96 1003.08 1003.18 1003.18 1003.03 1002.69 1002.11 1001.29 1000.24 999.02 997.68 996.31 995.02 993.89 993.02 992.48 992.30 992.51 993.08 993.97
1007.72 1007.05 1006.40 1005.79 1005.26 1004.83 1004.49 1004.24 1004.08 1003.97 1003.90 1003.84 1003.75 1003.63 1003.46 1003.25 1003.02 1002.79 1002.58 1002.42 1002.33 1002.33 1002.39 1002.50 1002.63 1002.71 1002.71 1002.55 1002.20 1001.62 1000.81 999.78 998.58 997.26 995.91 994.62 993.49 992.61 992.03 991.80 991.94 992.44 993.26
Thickness
5719 5716 5712 5710 5708 5706 5704 5703 5702 5702 5701 5700 5699 5699 5699 5698 5697 5696 5696 5695 5693 5691 5690 5688 5687 5687 5687 5687 5686 5685 5684 5682 5680 5683 5685 5685 5683 5682 5682 5681 5681 5679 5679
5714 5710 5707 5705 5703 5700 5699 5698 5697 5696 5695 5695 5694 5694 5694 5693 5692 5691 5690 5690 5688 5687 5685 5684 5683 5682 5680 5680 5679 5679 5678 5678 5676 5674 5676 5678 5677 5676 5676 5675 5676 5676 5675
5709 5705 5702 5699 5697 5695 5693 5693 5692 5692 5691 5690 5689 5689 5689 5688 5687 5687 5686 5685 5684 5683 5681 5679 5678 5676 5674 5674 5672 5672 5672 5672 5671 5669 5670 5670 5670 5671 5670 5670 5670 5669 5670
5703 5700 5696 5694 5691 5690 5689 5688 5688 5687 5686 5685 5684 5684 5684 5683 5683 5682 5681 5680 5679 5678 5677 5675 5673 5671 5668 5666 5665 5664 5663 5663 5663 5663 5663 5664 5664 5664 5663 5662 5663 5664 5664
5697 5693 5691 5689 5686 5684 5683 5683 5683 5682 5682 5681 5679 5679 5679 5679 5678 5676 5676 5675 5674 5673 5672 5671 5669 5665 5661 5659 5659 5658 5656 5656 5656 5656 5656 5656 5655 5654 5655 5655 5655 5657 5659
5691 5688 5686 5684 5682 5680 5679 5678 5678 5677 5677 5676 5674 5674 5673 5673 5669 5667 5667 5669 5669 5668 5667 5666 5663 5660 5656 5652 5650 5649 5648 5648 5648 5648 5649 5649 5648 5649 5648 5648 5648 5649 5649
5685 5683 5682 5680 5678 5677 5676 5675 5673 5672 5671 5670 5669 5669 5667 5665 5661 5660 5660 5661 5663 5663 5661 5659 5658 5657 5651 5649 5645 5642 5642 5640 5639 5640 5642 5642 5642 5643 5641 5641 5641 5641 5641
5680 5679 5677 5676 5674 5673 5671 5669 5668 5667 5665 5664 5663 5663 5661 5659 5655 5654 5654 5656 5657 5657 5655 5653 5651 5649 5647 5643 5642 5640 5639 5638 5636 5636 5636 5637 5638 5636 5634 5635 5635 5636 5637
5675 5674 5673 5672 5670 5668 5666 5664 5663 5661 5659 5659 5658 5657 5655 5653 5649 5648 5647 5652 5652 5652 5650 5648 5646 5643 5638 5635 5636 5635 5634 5633 5632 5630 5630 5629 5629 5629 5629 5630 5631 5632 5632
5669 5669 5668 5667 5665 5663 5660 5658 5657 5656 5655 5654 5652 5651 5650 5648 5644 5642 5641 5647 5647 5647 5645 5643 5639 5637 5632 5629 5631 5631 5629 5629 5630 5629 5626 5625 5626 5626 5624 5625 5627 5628 5628
5664 5663 5662 5661 5659 5658 5655 5653 5651 5651 5649 5648 5646 5646 5645 5643 5639 5637 5635 5640 5641 5641 5641 5639 5636 5630 5627 5624 5624 5625 5624 5623 5625 5625 5625 5626 5625 5625 5624 5623 5623 5624 5624
5656 5656 5655 5654 5654 5653 5650 5648 5647 5645 5643 5642 5641 5640 5641 5639 5636 5632 5630 5629 5630 5633 5633 5633 5630 5623 5621 5619 5619 5618 5617 5616 5621 5622 5623 5622 5622 5621 5621 5620 5619 5619 5619
5647 5647 5647 5646 5646 5645 5644 5642 5641 5640 5641 5640 5639 5638 5637 5636 5633 5627 5624 5623 5622 5625 5627 5623 5620 5618 5616 5617 5614 5613 5613 5615 5617 5618 5618 5618 5618 5617 5616 5615 5616 5615 5616
5638 5639 5639 5639 5639 5639 5638 5638 5637 5636 5636 5636 5635 5634 5633 5631 5629 5626 5623 5621 5617 5618 5619 5617 5614 5613 5613 5613 5612 5612 5612 5613 5612 5612 5613 5613 5613 5613 5613 5613 5613 5613 5613
5631 5632 5633 5633 5634 5632 5632 5631 5631 5630 5630 5629 5629 5629 5628 5626 5622 5617 5616 5617 5615 5614 5613 5614 5614 5614 5614 5614 5613 5611 5610 5610 5609 5609 5608 5608 5608 5609 5609 5609 5608 5609 5610
5625 5626 5629 5629 5629 5628 5627 5626 5621 5621 5620 5619 5618 5618 5619 5615 5612 5609 5607 5606 5605 5604 5606 5610 5610 5611 5611 5610 5610 5609 5608 5606 5605 5605 5605 5605 5605 5604 5605 5605 5605 5605 5606
5619 5620 5622 5624 5624 5624 5624 5623 5621 5616 5613 5612 5611 5610 5608 5607 5605 5603 5601 5600 5599 5598 5603 5607 5607 5606 5606 5606 5605 5605 5604 5603 5602 5601 5602 5601 5601 5601 5601 5600 5600 5600 5601
5613 5613 5615 5616 5618 5619 5619 5619 5619 5618 5616 5613 5607 5603 5602 5600 5598 5597 5595 5595 5599 5599 5603 5604 5603 5602 5601 5601 5600 5600 5599 5599 5598 5597 5597 5597 5597 5596 5596 5596 5596 5595 5595
5606 5608 5609 5611 5612 5614 5615 5615 5615 5614 5614 5612 5609 5603 5598 5596 5593 5592 5591 5597 5601 5601 5600 5600 5599 5598 5597 5596 5595 5595 5594 5594 5593 5592 5592 5591 5591 5591 5591 5591 5591 5588 5588
5599 5598 5600 5604 5606 5608 5609 5610 5609 5609 5608 5607 5605 5603 5598 5596 5597 5594 5592 5595 5596 5597 5596 5595 5594 5593 5592 5591 5590 5589 5589 5588 5587 5587 5586 5585 5585 5585 5585 5585 5586 5585 5586
5594 5594 5592 5597 5600 5601 5602 5602 5602 5602 5602 5600 5599 5596 5591 5595 5595 5593 5592 5591 5591 5591 5590 5589 5588 5587 5587 5586 5585 5584 5583 5582 5581 5580 5580 5580 5580 5580 5580 5580 5581 5581 5581
5587 5589 5590 5591 5592 5593 5593 5593 5594 5595 5595 5593 5593 5592 5584 5588 5589 5588 5586 5586 5585 5584 5584 5582 5582 5581 5580 5580 5578 5577 5576 5575 5574 5573 5573 5574 5574 5574 5575 5575 5575 5575 5575
5581 5582 5583 5584 5584 5582 5584 5586 5586 5587 5587 5586 5586 5585 5583 5581 5582 5581 5580 5579 5578 5577 5577 5576 5575 5574 5573 5571 5570 5569 5569 5568 5567 5567 5567 5568 5568 5568 5569 5569 5569 5569 5570
5574 5575 5576 5577 5578 5579 5579 5579 5579 5579 5579 5578 5578 5577 5577 5574 5574 5574 5574 5573 5571 5570 5569 5568 5567 5566 5564 5562 5561 5562 5559 5558 5557 5559 5559 5560 5561 5563 5564 5563 5564 5564 5564
5567 5568 5569 5569 5570 5571 5572 5572 5571 5571 5570 5570 5569 5569 5569 5569 5568 5567 5566 5565 5563 5563 5562 5561 5560 5558 5556 5554 5553 5553 5550 5548 5548 5549 5551 5554 5555 5556 5556 5557 5558 5559 5559
5561 5561 5562 5562 5562 5563 5563 5563 5563 5563 5562 5562 5562 5562 5562 5562 5561 5560 5559 5557 5556 5556 5554 5553 5552 5551 5549 5548 5546 5544 5541 5540 5540 5540 5541 5545 5548 5549 5549 5550 5551 5552 5553